Total_Precipitation_Accumulation
0.00 0.00 0.00 0.00 0.00 0.00 0.00 0.00 0.00 0.00 0.00 0.00 0.00 0.00 0.00 0.00 0.00 0.00 0.00 0.00 0.00 0.00 0.00 0.00 0.00 0.00 0.00 0.00 0.00 0.00 0.00 0.00 0.00 0.00 0.00 0.00 0.00 0.00
0.00 0.00 0.00 0.00 0.00 0.00 0.00 0.00 0.00 0.00 0.00 0.00 0.00 0.00 0.00 0.00 0.00 0.00 0.00 0.00 0.00 0.00 0.00 0.00 0.00 0.00 0.00 0.00 0.00 0.00 0.00 0.00 0.00 0.00 0.00 0.00 0.00 0.00
0.00 0.00 0.00 0.00 0.00 0.00 0.00 0.00 0.00 0.00 0.00 0.00 0.00 0.00 0.00 0.00 0.00 0.00 0.00 0.00 0.00 0.00 0.00 0.00 0.00 0.00 0.00 0.00 0.00 0.00 0.00 0.00 0.00 0.00 0.00 0.00 0.00 0.00
0.00 0.00 0.00 0.00 0.00 0.00 0.00 0.00 0.00 0.00 0.00 0.00 0.00 0.00 0.00 0.00 0.00 0.00 0.00 0.00 0.00 0.00 0.00 0.00 0.00 0.00 0.00 0.00 0.00 0.00 0.00 0.00 0.00 0.00 0.00 0.00 0.00 0.00
0.00 0.00 0.00 0.00 0.00 0.00 0.00 0.00 0.00 0.00 0.00 0.00 0.00 0.00 0.00 0.00 0.00 0.00 0.00 0.00 0.00 0.00 0.00 0.00 0.00 0.00 0.00 0.00 0.00 0.00 0.00 0.00 0.00 0.00 0.00 0.00 0.00 0.00
0.00 0.00 0.00 0.00 0.00 0.00 0.00 0.00 0.00 0.00 0.00 0.00 0.00 0.00 0.00 0.00 0.00 0.00 0.00 0.00 0.00 0.00 0.00 0.00 0.00 0.00 0.00 0.00 0.00 0.00 0.00 0.00 0.00 0.00 0.00 0.00 0.00 0.00
0.02 0.00 0.00 0.00 0.00 0.00 0.00 0.00 0.00 0.00 0.00 0.00 0.00 0.00 0.00 0.00 0.00 0.00 0.00 0.00 0.00 0.00 0.00 0.00 0.00 0.00 0.00 0.00 0.00 0.00 0.00 0.00 0.00 0.00 0.00 0.00 0.00 0.00
0.31 0.18 0.10 0.07 0.05 0.03 0.02 0.01 0.01 0.00 0.00 0.00 0.00 0.00 0.00 0.00 0.00 0.00 0.00 0.00 0.00 0.00 0.00 0.00 0.00 0.00 0.00 0.00 0.00 0.00 0.00 0.00 0.00 0.00 0.00 0.00 0.00 0.00
0.58 0.43 0.34 0.26 0.26 0.20 0.19 0.18 0.13 0.09 0.05 0.03 0.02 0.01 0.01 0.00 0.01 0.02 0.01 0.00 0.00 0.00 0.00 0.00 0.00 0.00 0.00 0.00 0.00 0.00 0.00 0.00 0.00 0.00 0.00 0.00 0.00 0.00
0.73 0.59 0.49 0.41 0.39 0.40 0.35 0.34 0.25 0.19 0.15 0.11 0.07 0.05 0.04 0.04 0.04 0.05 0.04 0.02 0.00 0.00 0.00 0.00 0.00 0.00 0.00 0.00 0.00 0.00 0.00 0.00 0.00 0.00 0.00 0.00 0.00 0.00
0.68 0.55 0.48 0.41 0.40 0.52 0.56 0.46 0.35 0.27 0.31 0.37 0.29 0.25 0.21 0.16 0.11 0.07 0.05 0.02 0.02 0.01 0.01 0.02 0.01 0.02 0.02 0.01 0.00 0.00 0.00 0.00 0.00 0.00 0.00 0.00 0.00 0.00
0.63 0.55 0.53 0.39 0.37 0.45 0.41 0.30 0.28 0.21 0.25 0.38 0.43 0.36 0.29 0.22 0.19 0.09 0.05 0.08 0.10 0.10 0.07 0.15 0.14 0.13 0.12 0.04 0.01 0.01 0.00 0.00 0.00 0.00 0.00 0.00 0.00 0.00
0.60 0.54 0.51 0.58 0.58 0.61 0.57 0.41 0.34 0.34 0.35 0.33 0.26 0.27 0.27 0.25 0.20 0.17 0.15 0.17 0.19 0.16 0.10 0.15 0.11 0.10 0.08 0.03 0.01 0.02 0.00 0.00 0.00 0.00 0.00 0.00 0.00 0.00
0.35 0.40 0.39 0.50 0.43 0.42 0.43 0.37 0.38 0.38 0.31 0.33 0.31 0.29 0.25 0.23 0.23 0.26 0.24 0.19 0.12 0.10 0.09 0.08 0.05 0.06 0.06 0.03 0.01 0.01 0.01 0.00 0.00 0.00 0.00 0.00 0.00 0.00
0.28 0.40 0.46 0.43 0.32 0.27 0.28 0.28 0.32 0.25 0.23 0.25 0.25 0.26 0.29 0.30 0.31 0.27 0.18 0.12 0.11 0.11 0.08 0.05 0.04 0.03 0.03 0.03 0.02 0.02 0.02 0.02 0.01 0.01 0.01 0.01 0.00 0.00
0.25 0.31 0.36 0.38 0.35 0.27 0.25 0.23 0.20 0.22 0.27 0.27 0.25 0.23 0.26 0.23 0.20 0.17 0.16 0.15 0.15 0.12 0.08 0.07 0.05 0.03 0.04 0.04 0.05 0.03 0.02 0.02 0.01 0.01 0.00 0.00 0.00 0.00
0.17 0.14 0.16 0.20 0.24 0.24 0.24 0.20 0.19 0.22 0.21 0.20 0.22 0.20 0.18 0.16 0.14 0.12 0.12 0.13 0.11 0.06 0.09 0.10 0.08 0.06 0.04 0.03 0.04 0.02 0.02 0.02 0.01 0.00 0.00 0.00 0.00 0.00
0.05 0.08 0.11 0.09 0.10 0.14 0.16 0.20 0.24 0.28 0.20 0.19 0.17 0.14 0.13 0.12 0.12 0.13 0.13 0.12 0.10 0.09 0.11 0.11 0.13 0.11 0.06 0.02 0.01 0.01 0.01 0.00 0.00 0.00 0.00 0.00 0.00 0.00
0.01 0.00 0.01 0.02 0.05 0.08 0.10 0.12 0.13 0.12 0.13 0.13 0.10 0.08 0.08 0.07 0.12 0.08 0.08 0.08 0.08 0.06 0.08 0.10 0.13 0.08 0.05 0.01 0.00 0.00 0.00 0.00 0.00 0.00 0.00 0.00 0.00 0.00
0.00 0.01 0.01 0.01 0.03 0.04 0.03 0.03 0.03 0.04 0.06 0.05 0.05 0.06 0.06 0.06 0.06 0.04 0.04 0.04 0.05 0.06 0.08 0.08 0.06 0.03 0.03 0.01 0.00 0.00 0.00 0.00 0.00 0.00 0.00 0.00 0.00 0.00
0.03 0.03 0.03 0.02 0.04 0.05 0.05 0.07 0.06 0.06 0.06 0.06 0.07 0.06 0.06 0.08 0.09 0.05 0.06 0.07 0.08 0.07 0.06 0.02 0.02 0.09 0.11 0.07 0.02 0.00 0.00 0.00 0.00 0.00 0.00 0.01 0.00 0.00
0.11 0.13 0.13 0.10 0.07 0.08 0.08 0.07 0.09 0.12 0.10 0.10 0.12 0.13 0.13 0.15 0.15 0.12 0.14 0.16 0.15 0.09 0.05 0.06 0.10 0.18 0.17 0.06 0.01 0.00 0.00 0.00 0.00 0.00 0.00 0.00 0.01 0.01
0.08 0.09 0.10 0.11 0.09 0.08 0.07 0.09 0.11 0.11 0.11 0.12 0.16 0.17 0.18 0.20 0.14 0.15 0.13 0.13 0.15 0.16 0.13 0.13 0.15 0.16 0.12 0.04 0.03 0.02 0.00 0.00 0.02 0.03 0.02 0.00 0.01 0.00